SCOUT A R/B, 2413

Orbit data source: Space-Track

SCOUT A R/B, 2413 is space debris in LEO originally from a launch on Thu, 18 Aug 1966 UTC launched from the Air Force Western Test Range (AFWTR). Debris objects in space refer to the collection of defunct objects orbiting the Earth. Examples of debris include non-operational satellites, rocket bodies, and fragments generated from explosions, collisions, or faulty payload assembly.

Loading next visibility...
Identifier
2413, 1966-076B
Orbit
LEO
Country
Flag of USUS
Related business
Manufacturer
ABL
Mission
Spacecraft
Bus & Motor
ALTAIR, Unknown motor
Mass
33 kg wet, 33 kg dry
Launch date (UTC)
1966-08-18 (60 years ago)
Launch vehicle
Unknown
Launch site
Air Force Western Test Range (AFWTR)
Object type
Payload
Rocket body
Debris
Shape & HBR
Unknown
Radar Cross Section
Medium (>0.1 m² and <1 m²)

Expand to show TLE details & history
Last TLE update: 1 day ago

TLE from 1 day ago
0 SCOUT A R/B
1 02413U 66076B   26199.03901985  .00000064  00000-0  79432-4 0  9996
2 02413  88.8440  68.1531 0031618 340.2395  19.7529 13.51875190952822
Epoch: 2026-07-18T00:56Z
TLE epoch observation values (Epoch: 2026-07-18T00:56:11.315Z)
Latitude
-0.00002°
Longitude
118.24846°
Altitude
1,046.175 km
Speed
7.34 km/s
True Right ascension
04h 32m 36s
True Declination
0° 00' 00"
Sunlit
Object was in daylight at epoch
Visualization orbit readout
Latitude
Unknown
Longitude
Unknown
Altitude
Unknown
Speed
Unknown
Apparent Right ascension
Unknown
Apparent Declination
Unknown
Sunlit
N/A
Visualization observer readout
Local Sidereal Time
19:51:33
Azimuth
Unknown
Elevation
Unknown
Doppler factor
Unknown
Orbital elements
Apogee altitude
1,085.943 km
Perigee altitude
1,038.892 km
Semi-major axis
7,440.555 km
Eccentricity
0.00316
Inclination
88.844°
RAAN
68.1531°
Arg. of periapsis
340.2395°
True anomaly
19.87581°
Mean anomaly
19.7529°
Eccentric anomaly
19.81431°
Mean motion
3.3817 °/min
Orbital period
106.46 mins
BSTAR
0.000079432
Loading maneuver chart data...
Computing Atmospheric mass density...
Loading historical data...
Loading historical data...
Loading historical data...
Loading historical data...
Loading historical data...
Loading historical data...
Loading historical data...

Documentation

Showing up to 5 results
|